Theta_e
324 322 321 322 324 324 321 318 305 306 305 295 296 297 294 302 302 299 298 300 298 297 298 298 298 296 297 294 293 292 291 292 291 293 292 299 305 302 303 303 303 302 302 301 302 302 303 307 316 316 318 319 319 318 319 318 318 318 319 319 319 319 319 319 319 319 319 319 319 319 318 319 319 319 319 319 320 320 320 321 321 322 321 321 321 321 322 322 322 323 322 323 322 321 321 321 321
320 321 323 324 323 324 312 314 305 302 301 295 294 297 296 299 299 296 296 297 298 298 299 299 298 298 296 296 295 295 293 292 295 294 297 301 301 302 301 301 301 301 302 303 301 302 303 304 314 315 316 317 318 318 317 317 317 317 318 318 318 318 318 318 318 318 318 318 318 318 318 318 318 318 319 318 318 319 319 319 320 321 321 320 322 322 320 320 321 322 319 321 321 321 318 318 318
320 321 321 323 320 317 314 314 302 301 296 291 293 295 300 297 296 296 297 298 298 299 299 298 297 296 298 298 294 294 292 295 294 297 298 301 295 298 300 301 302 303 303 303 302 302 303 305 312 313 314 316 316 317 318 316 316 316 317 317 317 317 318 317 316 317 317 316 316 316 316 316 317 317 317 317 317 317 318 318 319 320 320 321 321 322 321 320 320 321 320 319 319 321 320 320 319
323 322 322 322 313 317 308 306 303 300 295 293 292 296 297 298 297 297 298 299 299 298 299 296 295 295 295 294 293 297 294 294 296 295 295 296 296 299 300 302 303 302 302 303 302 302 303 306 311 312 313 314 315 315 317 316 314 315 315 315 316 316 316 316 316 316 315 315 315 315 315 315 315 316 315 316 317 316 317 317 317 317 317 318 318 318 319 319 319 319 319 318 319 319 318 321 319
321 321 322 320 316 305 306 301 300 301 293 296 291 296 297 298 297 298 298 299 299 298 298 298 296 295 294 293 294 294 292 296 296 296 296 298 300 301 301 302 301 300 300 301 302 302 303 307 310 311 311 312 313 314 315 314 314 314 314 315 315 315 316 316 315 314 314 315 314 314 315 315 315 315 315 315 314 315 316 316 316 316 316 316 316 317 317 317 318 319 319 318 318 318 318 320 317
320 318 319 318 306 311 308 300 296 293 296 300 295 295 297 299 298 298 297 298 298 298 297 297 296 295 293 293 294 292 295 293 295 297 297 298 301 302 302 303 300 300 300 301 301 302 303 308 311 310 310 311 312 313 313 313 313 313 314 313 313 314 314 314 315 314 314 314 314 314 313 314 314 313 314 314 315 315 315 315 314 315 315 315 314 314 316 316 316 316 317 317 317 318 318 318 317
320 319 314 313 310 310 299 296 295 294 293 300 297 296 298 299 299 298 297 298 298 298 299 297 297 297 295 296 297 296 297 298 295 298 301 301 304 302 301 301 300 299 300 301 301 302 304 308 311 310 309 310 311 311 312 312 312 312 312 312 313 313 313 313 313 313 313 313 314 313 313 312 313 312 313 313 314 313 313 315 314 313 313 313 313 313 314 314 314 315 316 315 315 315 316 315 314
321 316 311 306 301 303 296 294 294 296 293 297 298 297 299 299 299 298 297 298 296 296 297 298 297 296 292 295 292 297 299 300 300 301 302 303 304 302 302 300 299 299 300 301 302 303 306 308 309 310 309 308 309 310 311 312 311 311 311 311 312 312 312 312 312 312 312 312 312 313 312 311 312 312 311 312 312 313 313 314 314 312 312 312 312 312 313 312 313 313 313 314 314 314 314 314 313
316 313 315 307 298 300 296 293 292 296 294 297 296 298 298 299 299 298 297 297 297 297 296 297 298 295 293 292 291 296 298 300 301 302 301 301 301 302 301 299 298 299 300 301 302 304 305 306 308 309 308 307 308 308 309 310 310 310 310 310 311 311 311 311 311 311 311 311 311 311 311 310 311 311 310 311 311 311 312 312 313 313 313 312 312 312 312 312 311 312 312 312 312 312 312 312 311
311 313 305 304 303 295 294 294 294 294 293 295 296 296 297 299 298 299 297 296 295 296 295 297 297 293 293 290 292 295 296 301 301 300 300 301 302 302 299 299 300 300 300 301 302 304 306 304 305 308 308 306 307 307 308 309 309 309 309 309 310 310 310 310 310 310 310 310 310 310 310 309 310 310 309 309 309 309 310 310 311 312 312 312 312 311 311 311 311 311 311 311 311 311 310 310 309
306 309 311 303 298 295 293 292 293 294 294 297 297 298 298 299 298 297 297 296 297 296 297 297 295 293 293 291 293 298 301 300 298 296 299 300 302 301 300 301 301 303 301 303 305 305 304 305 304 305 308 307 305 305 307 308 307 308 308 308 308 308 308 308 308 308 308 309 309 309 309 308 308 308 308 307 307 308 309 309 309 310 311 311 311 310 310 310 310 310 310 310 310 309 309 308 306
305 306 307 297 296 295 294 293 294 295 296 297 295 297 299 298 299 297 297 296 296 296 295 296 294 295 291 291 292 296 297 297 297 298 299 301 300 301 302 301 302 302 303 304 304 303 305 305 304 304 305 307 305 304 306 307 307 306 307 307 307 308 307 307 307 307 307 307 307 308 307 307 307 307 306 306 306 306 307 307 307 308 309 309 309 309 308 307 308 309 307 307 308 308 307 306 304
306 307 301 297 295 296 296 294 294 296 296 295 295 296 299 297 296 296 296 296 295 296 294 295 296 296 290 290 294 296 294 295 297 299 300 300 300 301 302 300 301 302 302 305 304 303 305 303 302 303 304 305 303 304 304 306 308 306 306 306 306 307 307 306 306 306 306 306 306 306 305 305 304 305 304 304 304 304 305 304 305 306 307 307 307 307 306 306 306 306 306 305 306 306 305 304 303
306 306 303 293 299 297 296 294 296 294 294 295 297 297 297 296 295 296 297 297 295 295 296 296 296 297 290 293 292 292 293 295 297 300 300 300 300 301 303 301 303 302 303 302 301 302 303 303 302 303 303 302 302 303 302 304 307 306 306 306 306 306 306 305 305 305 305 305 304 304 303 303 302 303 303 302 302 302 303 302 302 304 305 305 305 305 304 304 304 304 304 303 304 304 303 302 301
303 307 302 298 295 296 296 294 295 294 293 296 295 296 296 295 295 295 295 294 293 294 296 297 297 296 289 290 289 292 293 296 298 301 301 301 300 301 304 303 301 303 302 301 301 302 301 303 301 302 303 302 302 302 303 303 304 304 306 305 305 305 304 304 304 304 304 304 303 302 302 301 301 301 301 301 300 300 301 300 300 301 303 303 303 303 302 302 302 302 302 302 302 302 301 300 299
308 307 303 297 294 294 294 296 297 295 293 296 296 297 294 293 294 292 292 294 291 293 294 292 295 296 292 290 290 293 295 297 299 300 301 302 300 300 299 299 299 300 301 302 300 302 303 301 302 302 302 302 303 302 303 303 303 303 303 304 303 304 303 303 303 302 302 302 301 301 300 299 299 299 300 298 299 298 298 297 298 298 300 300 300 300 299 300 300 300 300 300 300 299 298 297 296
309 309 297 297 293 294 294 295 296 292 295 296 296 296 292 289 291 291 293 293 289 288 290 291 293 295 291 290 293 295 297 299 300 299 300 299 298 298 298 299 299 298 300 300 301 300 302 301 301 301 302 302 302 302 302 303 304 302 302 302 302 302 302 301 301 300 300 300 300 300 299 298 298 298 297 297 297 296 296 296 296 296 296 297 297 297 297 297 298 298 298 298 298 297 295 295 294
307 300 298 294 296 294 296 296 296 298 296 295 295 295 292 289 291 291 294 289 289 289 289 290 292 293 295 294 295 297 297 297 298 297 296 296 297 296 296 297 297 296 298 299 300 300 300 300 301 301 301 302 302 304 303 303 304 301 302 302 302 302 301 300 300 300 299 300 299 299 299 298 297 297 296 296 296 295 295 295 294 294 295 295 295 296 295 296 296 296 296 297 296 294 293 292 292
301 300 298 293 295 293 296 297 299 298 296 295 293 293 293 291 292 291 288 287 288 288 289 291 290 292 293 294 294 295 297 296 295 295 294 294 295 294 295 296 296 296 297 298 299 299 300 300 301 300 301 301 302 302 304 303 303 301 302 302 302 301 301 301 301 300 300 299 299 299 298 297 296 296 295 294 294 294 293 293 293 293 293 293 294 294 293 293 295 294 294 295 293 292 291 291 291
298 300 293 292 295 294 295 298 297 299 297 293 292 292 292 290 291 292 288 287 288 288 288 289 289 289 291 292 294 295 296 296 297 296 295 295 295 295 295 295 295 296 296 297 298 299 300 300 300 300 301 301 302 302 302 302 301 301 301 302 301 301 301 300 300 300 299 298 298 298 297 297 295 295 294 294 293 292 291 292 292 291 291 291 292 291 292 292 293 292 292 293 291 291 290 290 290
298 298 294 294 297 295 293 295 297 296 297 294 293 291 291 290 290 290 289 288 287 288 289 288 288 289 291 292 293 294 293 294 294 296 296 296 296 296 296 295 295 296 297 298 299 299 298 299 300 300 300 301 302 301 301 300 301 301 301 301 301 300 300 300 299 299 298 298 297 297 297 295 294 294 293 292 291 290 290 290 290 290 290 290 291 290 290 290 290 290 290 290 290 290 290 290 290
294 291 296 296 295 292 291 293 293 293 293 294 292 291 290 290 290 290 290 289 288 289 290 290 291 291 291 292 292 293 293 294 293 294 294 295 295 295 296 297 297 297 297 297 297 297 298 298 299 300 300 301 301 300 300 301 300 299 300 300 300 300 300 299 299 298 297 297 296 296 295 294 293 292 291 290 290 290 289 289 289 289 289 289 290 289 289 289 289 289 289 289 289 289 289 290 290
292 292 292 294 295 292 291 292 290 293 294 293 292 290 290 289 287 288 288 289 289 291 291 291 291 292 292 292 292 292 293 293 293 294 294 295 296 296 295 296 296 296 297 297 298 297 298 298 299 300 300 300 301 301 301 300 299 300 300 299 299 298 298 298 297 297 296 296 295 294 293 292 290 289 289 289 289 289 289 288 288 289 289 288 289 289 289 289 288 288 288 288 288 289 289 289 289
296 290 291 290 293 290 290 290 289 292 294 290 290 290 288 288 287 287 287 288 290 291 290 291 291 291 291 290 292 291 292 293 293 293 294 295 295 296 297 296 296 297 298 297 298 298 298 298 298 298 299 299 300 300 299 299 299 300 299 299 299 298 298 297 296 296 296 294 293 292 291 290 289 288 288 288 288 289 288 288 288 288 288 288 288 289 288 287 288 288 288 288 288 288 288 289 289
292 289 290 289 290 289 290 291 290 290 288 289 289 289 287 288 288 288 288 289 290 291 291 290 290 290 289 290 291 291 292 293 294 295 295 296 295 296 296 297 297 297 296 297 298 298 298 298 298 298 299 299 299 299 299 299 299 299 299 298 298 297 297 297 296 296 294 292 291 291 290 288 288 288 287 288 288 288 288 288 287 287 287 287 288 287 287 287 287 287 287 287 287 287 288 288 288
292 290 291 290 289 290 291 291 290 290 290 289 289 287 288 288 288 287 290 290 291 291 291 290 291 291 291 292 292 292 292 293 294 294 295 296 296 295 296 296 296 296 296 297 297 298 297 297 298 298 298 299 299 299 299 298 299 298 298 298 297 297 297 297 296 294 292 290 289 289 289 289 288 287 287 287 287 287 287 288 287 287 286 287 287 286 286 286 286 286 287 287 287 287 287 287 288
292 292 292 291 290 291 291 291 289 290 290 289 288 287 288 289 288 287 290 291 290 291 291 291 291 292 292 292 292 292 292 293 294 295 295 295 295 295 296 297 297 297 297 297 297 297 298 298 298 298 298 300 299 298 299 298 298 298 298 298 297 297 296 296 294 292 291 289 288 288 289 289 288 287 287 287 287 287 287 287 286 286 286 286 286 286 287 287 286 286 286 286 286 286 287 287 287
292 291 291 290 291 291 290 291 289 291 290 289 290 288 289 288 288 289 290 290 289 290 291 291 291 292 293 293 293 294 293 294 295 294 294 294 295 296 296 296 296 297 297 296 297 298 297 297 297 298 298 299 298 298 298 298 298 298 298 297 296 296 296 294 292 291 289 288 288 288 289 288 287 287 287 286 287 286 286 286 286 286 285 286 286 286 286 287 286 286 286 286 286 286 286 287 287
292 292 288 288 290 289 290 289 289 289 289 288 288 288 287 287 287 291 290 289 289 289 290 291 291 292 293 293 293 293 294 294 295 294 295 296 296 296 295 297 296 296 298 297 296 297 296 297 298 298 298 299 298 298 298 298 298 297 297 296 296 296 294 292 290 289 288 288 288 287 288 288 287 286 286 286 287 286 285 285 285 285 285 285 286 286 286 286 286 285 285 286 286 286 286 286 287
292 291 289 288 288 288 289 289 289 289 289 287 288 285 287 288 290 290 290 289 289 289 291 291 292 292 292 293 293 294 294 294 294 295 296 296 296 296 295 297 296 296 297 298 297 296 296 298 298 298 299 298 298 298 297 297 297 297 297 295 295 294 292 290 289 288 288 287 288 287 287 287 286 286 286 286 286 286 285 285 285 284 284 285 286 286 285 285 284 284 284 284 284 285 284 285 285
289 287 290 288 288 285 288 288 288 288 288 288 288 286 287 289 290 291 290 288 288 290 291 291 291 291 292 293 293 294 294 295 295 295 296 296 296 296 296 296 296 296 297 297 297 296 296 298 298 297 298 298 298 297 297 296 296 296 295 294 293 293 291 289 288 288 287 287 287 286 286 287 286 286 286 285 285 285 284 284 284 283 284 285 285 285 285 284 284 283 283 283 284 284 284 285 284
287 287 287 288 288 285 288 288 287 287 288 288 288 286 287 289 290 291 289 288 287 289 291 291 291 291 291 292 292 293 294 295 294 294 295 295 295 295 296 296 296 295 296 297 297 297 296 297 298 298 298 297 298 297 297 296 295 295 294 292 292 292 290 288 287 287 287 287 286 286 286 286 286 285 285 285 285 285 283 283 283 283 284 284 285 285 284 283 283 283 283 283 282 282 283 283 284
288 289 285 286 287 286 287 287 287 287 286 289 287 286 288 288 290 290 287 288 288 288 290 291 291 291 291 292 293 293 294 295 296 295 296 296 296 295 295 294 296 296 296 296 296 296 296 297 298 297 296 297 296 296 296 296 295 294 292 290 290 291 289 287 287 287 287 286 286 285 285 285 285 285 285 285 284 284 283 283 283 283 283 284 284 284 283 283 283 282 282 283 283 281 282 282 282
288 288 287 284 285 286 286 286 286 288 286 287 288 286 288 290 290 290 288 288 288 288 290 291 291 291 292 292 292 292 293 294 294 296 296 295 295 294 294 295 296 296 295 296 296 296 296 297 298 298 297 296 296 295 295 294 294 293 292 290 290 290 289 288 287 287 286 285 285 285 285 285 285 285 284 284 283 284 283 283 283 282 283 283 284 283 282 282 282 282 281 282 282 281 281 281 281
287 287 286 285 284 284 285 286 286 288 287 286 287 286 288 290 291 291 290 287 287 289 290 291 291 291 292 292 292 292 293 293 294 296 296 294 294 294 294 295 296 296 295 295 295 295 297 297 297 296 296 295 295 295 295 294 293 292 290 289 289 289 288 288 287 286 286 285 284 284 284 284 284 284 284 284 283 283 283 283 282 282 283 283 283 282 281 281 281 281 280 281 282 282 281 282 281
288 288 287 287 286 285 286 286 286 286 286 287 287 286 288 290 291 292 289 287 287 289 291 290 290 291 291 291 292 292 293 294 296 295 294 294 294 294 295 294 295 296 295 295 296 296 296 296 296 296 295 295 295 294 294 292 291 289 287 288 288 287 287 286 286 285 286 284 284 284 284 283 283 283 283 283 283 283 282 282 282 282 282 282 282 281 280 280 280 280 280 280 280 281 282 281 281
285 287 287 285 286 285 285 285 285 285 285 287 286 287 287 288 290 292 290 287 287 288 289 290 291 292 292 292 292 293 293 294 297 295 294 294 294 294 294 295 295 295 295 295 295 296 296 296 296 294 294 295 293 292 291 290 287 286 286 286 285 286 286 286 285 285 285 284 283 283 283 283 283 283 283 283 282 282 282 282 281 281 281 282 282 280 280 280 280 280 280 280 280 279 280 281 281
286 287 287 286 286 286 285 285 285 287 285 287 285 286 288 289 291 292 290 287 288 290 291 291 292 292 292 292 293 294 294 295 295 295 294 293 294 294 294 295 296 294 295 295 295 296 295 295 294 293 294 293 293 291 289 288 287 285 285 285 285 285 285 284 284 284 284 284 283 283 283 283 282 282 282 282 282 282 281 281 280 280 280 281 282 280 280 280 279 279 279 278 280 279 279 280 280
287 287 286 286 286 286 286 285 286 286 285 287 287 286 288 291 291 291 289 288 291 291 290 291 291 292 293 293 293 293 293 294 295 295 295 293 294 294 294 295 296 296 295 295 296 295 294 294 294 293 292 292 291 291 288 286 287 286 286 286 285 285 286 285 284 284 284 283 283 283 283 282 282 282 281 281 281 281 281 280 280 280 280 281 281 279 279 279 279 278 279 278 277 280 280 281 280
287 288 287 285 284 285 285 285 285 286 286 285 286 285 288 289 287 287 287 287 288 289 288 289 289 290 291 292 291 291 292 293 293 294 294 294 294 294 294 294 295 295 295 295 294 294 294 294 293 292 291 290 290 289 288 287 286 286 286 286 286 285 284 285 285 284 284 283 282 282 282 282 281 281 281 281 281 281 281 280 280 279 279 280 280 278 278 278 278 278 278 278 278 277 278 278 280
286 286 286 285 284 284 283 286 286 285 284 284 285 287 288 288 288 289 288 287 287 290 289 290 290 290 291 291 291 292 291 292 293 293 294 294 293 293 294 295 295 294 295 295 295 294 294 293 292 291 290 288 288 287 287 286 286 286 286 286 286 285 285 284 283 282 282 282 282 281 281 281 281 281 281 280 280 280 280 280 279 279 279 279 281 278 278 278 278 278 278 277 277 276 276 277 279
285 283 284 284 283 285 285 286 285 287 285 283 282 284 285 288 288 287 288 289 290 289 289 291 292 291 290 291 292 293 293 293 293 293 294 294 293 294 294 294 294 295 294 295 295 294 293 292 291 290 289 288 286 286 286 286 285 284 284 284 283 283 283 282 280 279 280 280 280 281 281 281 280 280 280 280 280 280 280 279 279 279 278 279 280 278 278 278 278 277 278 278 277 278 277 277 277
285 283 283 284 284 284 284 285 286 284 283 285 284 282 282 289 287 287 286 287 289 291 290 291 291 291 291 292 292 292 292 293 294 293 293 293 294 294 294 294 295 295 295 294 294 294 293 292 291 290 289 287 286 285 285 286 285 284 283 283 283 282 281 282 281 281 281 281 281 280 281 281 280 280 280 280 279 279 280 279 279 278 278 278 280 278 277 277 277 277 278 278 278 278 278 276 276
285 283 284 284 284 284 284 284 285 284 285 284 285 284 281 283 287 286 286 286 289 290 291 292 292 291 291 291 291 292 293 292 293 293 294 294 293 293 293 294 294 294 294 294 294 293 292 292 291 289 288 287 286 286 284 285 284 283 283 283 284 282 281 280 280 281 281 281 280 280 280 280 280 280 279 279 279 279 279 279 279 278 278 278 279 277 277 277 278 278 278 278 279 279 278 276 276
284 283 284 284 284 284 284 285 285 284 283 283 284 284 281 283 286 286 286 287 288 289 290 291 291 292 291 292 292 292 293 293 291 293 293 293 293 293 293 294 293 293 293 294 294 293 292 290 289 287 286 285 284 284 284 284 284 283 282 283 282 283 282 281 281 281 281 281 280 280 280 280 280 280 279 279 279 278 278 278 278 277 277 277 279 278 277 277 277 277 277 278 278 278 278 278 277
284 284 284 284 283 283 283 285 284 283 282 282 281 281 281 283 286 287 286 287 287 288 289 290 290 291 292 292 293 293 293 293 292 291 292 293 294 293 293 292 292 293 293 294 293 292 291 289 288 287 286 285 284 284 283 283 283 283 282 282 281 281 280 280 281 280 280 280 279 279 280 280 279 279 279 279 278 278 278 278 278 277 277 278 278 277 277 277 277 277 277 278 278 277 278 278 277
284 285 284 285 284 283 283 284 283 283 281 281 279 280 281 280 285 286 286 286 287 288 289 290 291 292 293 293 293 293 291 292 292 292 293 293 293 293 292 292 293 292 293 293 293 292 291 289 288 286 284 284 284 283 283 282 282 282 281 281 281 280 279 279 279 279 279 279 278 279 279 279 279 279 278 279 278 278 278 278 277 277 278 278 277 277 277 277 277 277 278 278 278 278 277 277 277
285 286 285 283 283 283 283 283 283 282 281 280 279 279 280 279 284 287 289 288 287 288 288 288 290 291 291 292 292 291 290 290 291 292 293 294 294 295 293 293 293 293 292 292 292 291 290 289 288 286 284 283 283 283 282 282 281 281 281 280 280 280 279 278 278 278 278 278 278 278 279 279 279 279 278 278 278 277 277 277 278 277 277 277 277 277 277 277 277 278 278 278 278 278 278 278 277
286 285 285 284 284 284 282 284 281 281 281 280 279 279 279 281 286 288 288 288 289 288 288 289 289 290 291 292 292 291 291 290 291 292 292 293 294 294 294 294 293 293 293 292 292 291 290 288 287 286 284 283 282 282 282 281 281 280 280 279 279 280 279 278 278 279 278 278 278 278 278 278 278 278 277 277 277 277 277 277 277 277 276 277 277 277 277 277 277 277 278 278 278 278 278 277 277
286 286 284 285 281 278 276 279 278 281 281 278 279 278 279 286 287 289 288 289 289 287 287 288 287 288 289 290 290 290 291 291 291 291 291 292 294 295 294 294 294 294 293 293 292 291 289 288 287 286 284 283 282 282 281 281 280 280 280 279 279 279 279 279 278 279 278 278 278 277 277 277 277 277 276 277 277 277 277 277 277 277 277 277 277 277 277 277 277 277 278 278 278 278 278 278 277
284 282 283 285 283 279 275 278 278 279 280 281 277 278 282 281 285 286 288 288 287 287 286 287 286 287 287 288 288 289 290 291 291 290 292 292 293 293 294 294 294 294 293 292 292 291 290 288 287 286 283 282 282 281 281 281 280 280 279 279 279 279 279 278 278 279 278 277 277 277 277 277 277 277 276 277 277 276 276 277 277 277 277 277 277 277 277 277 278 278 278 279 278 278 278 278 278
284 283 283 286 282 285 282 279 280 279 278 281 279 282 284 286 286 287 286 286 287 287 287 286 288 287 287 289 291 293 292 292 292 291 292 293 292 292 293 293 293 293 292 293 292 291 290 288 286 285 284 282 282 281 281 280 280 280 279 278 278 278 279 279 279 278 277 277 277 277 277 276 276 276 277 276 276 276 276 276 277 277 277 277 277 277 277 277 278 277 278 278 278 278 278 277 278
285 285 286 283 282 283 276 272 268 270 275 280 281 283 286 288 287 288 287 288 289 288 288 288 289 289 289 290 292 293 293 293 293 293 292 292 292 292 292 292 293 292 292 292 292 291 290 287 285 284 282 282 281 281 280 280 280 279 278 278 278 278 277 277 277 277 277 277 277 277 276 276 276 276 276 276 276 276 276 276 276 276 276 277 277 277 277 277 277 278 278 278 278 278 278 278 278
285 285 284 281 280 281 282 281 277 279 277 280 280 280 283 283 283 287 288 288 289 289 289 288 288 289 289 292 294 294 294 292 291 291 291 291 291 291 292 292 292 292 292 292 291 289 289 287 286 284 282 281 280 281 280 280 279 279 278 278 278 277 277 277 277 276 277 277 277 277 276 276 276 276 276 276 276 276 276 276 276 276 276 277 276 277 277 277 277 278 278 278 278 278 278 278 278
284 284 285 284 283 282 282 280 276 276 275 277 280 278 280 283 285 287 287 287 289 289 290 289 290 291 291 292 293 294 293 292 292 292 292 292 292 292 292 292 291 290 291 292 290 288 287 285 285 284 282 281 280 281 280 280 279 279 278 278 277 277 277 277 277 277 276 276 276 276 275 276 276 276 276 276 276 276 276 276 276 276 276 276 277 277 277 277 277 277 278 278 278 279 278 277 278
283 284 285 282 284 282 283 282 281 281 277 275 280 277 283 285 287 287 288 289 289 289 289 290 290 291 291 292 292 292 292 291 291 291 292 291 291 291 290 291 291 290 290 290 288 287 285 284 283 282 281 280 280 280 280 279 279 278 277 277 277 277 277 277 276 276 276 275 275 275 275 275 275 276 276 275 275 275 275 275 275 276 276 276 276 276 277 277 277 278 277 277 278 278 277 277 278
284 284 283 282 281 282 281 279 280 281 278 277 276 278 285 289 288 287 288 289 289 289 289 291 291 291 291 290 290 291 291 291 291 291 291 291 291 290 290 290 289 289 289 288 287 286 284 283 283 282 281 280 280 279 279 279 279 278 277 276 276 277 276 276 276 275 275 275 275 275 275 275 275 275 275 275 275 275 275 275 275 275 275 275 275 276 277 277 277 277 277 277 277 277 277 277 277
282 284 285 285 283 282 281 281 275 276 279 274 275 279 285 291 286 288 289 289 288 288 287 288 290 289 290 290 291 290 290 290 290 291 290 290 290 290 290 289 288 288 287 286 286 285 283 283 283 282 281 280 280 279 279 279 278 278 277 276 276 276 276 276 275 275 275 275 275 274 275 275 275 275 275 274 275 275 275 275 275 275 275 275 275 276 276 276 276 276 276 277 277 277 277 277 277
Wind_Speed
3 3 2 2 2 2 1 5 2 4 6 12 9 7 6 6 5 7 7 4 3 3 3 3 6 8 8 8 9 5 3 2 1 2 3 2 1 4 6 7 7 8 8 8 9 9 11 15 20 21 22 23 23 23 22 23 23 23 22 22 22 22 22 21 22 22 22 22 22 22 22 23 23 23 22 23 22 22 22 22 21 22 21 19 21 20 19 20 20 19 18 20 19 17 19 20 21
3 3 3 2 1 4 4 5 6 7 8 10 10 7 6 4 6 8 7 7 5 3 1 3 5 5 6 7 7 6 10 5 3 3 1 1 3 3 4 6 7 8 8 7 8 8 8 12 20 21 20 22 22 22 22 22 22 22 21 22 22 22 21 21 20 20 21 22 22 21 22 22 22 22 22 22 22 23 22 22 23 22 22 22 22 22 20 19 20 20 18 17 18 16 17 16 17
3 1 2 2 9 6 4 4 4 5 7 9 7 6 4 6 7 5 6 5 4 3 1 0 1 3 3 4 3 6 5 3 2 1 1 2 3 3 5 6 7 7 7 5 6 7 7 12 19 19 20 20 21 21 21 21 21 21 20 21 21 21 20 20 20 20 20 20 21 20 20 21 21 22 21 21 22 22 22 22 22 22 22 22 23 22 21 20 19 19 19 19 18 18 17 19 18
3 5 2 2 4 2 4 4 7 5 9 8 7 5 5 6 6 5 4 3 3 1 2 1 1 3 5 7 5 1 7 3 5 3 1 2 4 5 5 7 7 6 5 4 7 7 7 14 18 19 19 19 20 20 20 20 20 19 19 19 20 20 19 19 19 19 19 19 19 20 20 20 20 20 21 21 21 21 21 21 22 22 22 23 24 24 23 21 20 21 20 19 19 19 19 20 18
9 7 6 1 2 6 3 5 4 6 10 3 6 4 5 5 5 5 5 3 3 2 3 1 2 4 6 7 4 2 5 3 3 3 3 2 4 5 7 7 7 5 5 7 7 8 9 16 17 17 18 18 19 20 20 20 19 18 18 18 19 19 19 19 20 19 19 18 18 19 19 18 19 19 19 20 19 20 21 21 20 20 20 21 21 22 23 22 20 21 20 19 19 19 17 21 17
11 13 12 7 7 2 4 7 10 13 9 7 7 6 5 4 5 5 6 5 6 5 3 4 5 2 3 5 5 3 4 1 4 2 4 4 5 6 7 6 5 6 6 6 7 7 8 13 15 17 16 18 19 19 19 19 19 18 17 17 18 19 18 18 18 18 18 18 17 18 18 18 18 18 19 19 19 19 20 20 20 20 20 20 19 20 20 20 21 21 21 20 19 19 19 20 18
1 3 6 10 8 3 8 11 11 10 8 7 7 6 5 5 5 6 5 5 4 5 5 3 1 3 5 3 3 5 3 3 1 4 4 5 5 6 6 5 5 5 6 6 6 6 9 11 14 15 15 16 18 18 19 19 18 17 16 17 17 18 18 18 18 18 18 18 17 18 17 18 18 18 18 18 19 19 19 19 20 20 19 20 20 20 19 19 19 19 20 20 21 20 20 20 19
5 0 5 7 8 7 12 10 10 5 7 8 7 6 4 4 3 1 2 4 4 2 4 2 1 3 6 3 2 3 1 1 3 3 4 4 5 5 6 5 6 6 7 6 6 6 6 11 13 14 14 15 16 18 18 17 17 16 16 16 17 17 18 18 18 18 18 18 18 18 17 18 17 17 18 18 19 19 18 19 19 20 19 20 19 19 19 18 18 18 18 18 18 18 18 18 17
9 8 1 9 10 6 10 11 11 8 7 6 7 7 4 2 1 1 4 5 4 5 5 5 3 4 4 4 6 3 3 2 1 2 3 4 5 6 4 5 6 7 8 7 7 6 7 9 10 11 12 14 15 16 16 16 16 16 16 16 16 17 18 18 18 19 19 19 18 18 18 18 17 17 17 18 18 19 19 19 20 19 19 19 18 19 19 19 18 18 18 18 18 17 17 17 17
7 6 6 6 7 12 10 7 7 6 7 6 7 7 6 4 5 4 5 6 5 4 6 5 4 7 3 5 5 4 3 4 3 1 3 4 5 5 6 5 6 7 9 9 8 8 5 5 8 9 10 12 13 14 14 15 15 15 15 15 16 16 17 18 18 18 19 19 19 18 18 18 17 17 17 18 18 18 19 19 19 20 19 19 19 19 19 19 19 18 18 17 17 17 17 16 16
5 5 1 6 7 10 9 11 9 6 7 5 7 6 5 5 6 6 5 6 1 3 3 6 5 5 2 5 4 2 1 3 4 5 6 6 5 5 7 7 7 7 8 10 8 6 5 4 5 7 8 10 11 12 13 14 15 15 15 15 15 16 16 17 17 18 18 19 18 17 17 17 17 17 17 18 18 19 19 19 19 19 19 19 19 18 19 19 19 18 18 18 17 17 16 17 17
4 3 3 9 8 8 8 11 11 9 7 6 7 4 2 2 1 4 3 3 3 5 6 7 3 3 5 3 4 3 2 3 4 4 6 6 5 6 7 7 7 6 5 6 5 4 4 3 4 4 6 8 9 10 11 12 13 14 14 14 15 15 15 15 16 16 17 17 17 16 15 16 16 16 16 17 18 18 18 18 19 19 19 19 18 18 18 18 19 18 18 18 18 17 17 17 17
9 5 11 11 6 10 11 12 10 11 7 5 4 3 1 3 5 4 5 5 1 3 5 6 2 4 3 3 2 1 1 4 3 5 6 5 6 6 6 5 5 4 4 3 3 4 3 3 4 4 4 5 6 7 8 10 11 12 13 13 14 14 14 15 15 15 15 15 15 14 14 14 15 15 15 16 17 18 18 18 19 19 19 19 19 18 18 18 18 18 18 18 18 17 18 18 17
5 4 7 9 5 9 8 10 10 8 6 4 4 3 3 3 4 2 0 3 5 5 3 4 2 3 5 3 3 2 4 2 4 6 5 6 5 4 4 4 4 4 4 4 4 4 4 4 3 3 4 5 5 4 5 8 10 11 11 11 12 13 13 14 14 14 14 13 13 13 12 13 13 14 14 15 16 17 17 17 18 18 18 18 18 18 18 18 18 17 18 18 18 18 18 18 18
9 1 6 9 9 9 6 6 8 7 6 3 3 2 5 5 2 3 3 4 5 3 2 1 3 4 4 3 4 3 3 4 6 6 6 5 5 2 2 2 2 4 3 4 4 4 5 3 3 3 4 5 5 5 5 5 8 9 9 10 11 12 12 13 13 12 12 12 12 11 11 10 11 12 13 13 14 15 16 16 17 17 18 18 18 17 18 18 18 17 18 18 17 18 18 18 17
5 6 6 8 8 7 2 7 3 8 6 3 5 6 8 6 3 1 4 4 4 2 3 3 2 3 3 5 5 3 4 6 6 6 5 5 5 2 2 3 3 3 3 3 3 3 3 3 3 3 4 5 5 6 5 5 5 7 7 8 10 10 11 11 11 11 10 11 10 10 9 8 9 9 12 11 12 13 14 14 15 16 17 17 17 17 17 17 18 17 18 18 18 17 18 17 15
2 3 12 7 9 7 4 5 4 5 8 6 5 3 2 5 4 5 1 2 3 4 5 4 3 2 3 4 3 3 4 6 5 7 4 4 5 3 3 3 4 2 2 3 3 3 2 3 4 3 4 5 6 6 5 4 3 5 3 5 6 8 9 8 9 8 8 8 9 8 8 8 8 7 9 10 11 10 12 14 14 15 16 16 16 16 16 16 17 17 17 17 17 17 16 15 12
3 7 11 11 8 9 3 3 4 9 10 7 4 3 7 8 3 3 3 6 5 5 7 3 1 1 2 3 3 3 4 5 5 6 6 6 5 5 4 4 4 4 3 3 3 3 4 3 3 4 4 6 7 4 3 3 3 2 4 4 5 6 7 7 6 7 7 8 9 7 7 7 8 8 9 10 9 10 9 13 13 13 14 14 16 15 15 14 16 16 16 17 16 15 15 8 8
9 8 9 11 3 4 3 4 8 8 9 7 6 2 2 6 0 1 2 4 5 7 6 4 6 4 2 1 1 3 4 3 5 5 6 6 5 6 5 5 5 4 4 4 3 5 4 3 4 5 6 7 7 6 4 4 4 4 3 4 3 4 5 5 6 6 7 8 8 7 7 7 8 8 8 9 10 11 10 12 12 13 12 13 15 14 12 13 15 13 14 15 13 13 9 7 7
11 6 12 8 5 7 6 3 4 5 12 10 8 3 4 3 1 1 2 6 3 4 5 5 4 4 3 2 2 4 4 3 3 4 4 4 4 4 5 6 5 5 4 4 4 3 4 4 5 5 6 6 6 6 5 5 5 4 4 4 5 5 6 6 6 6 7 8 8 8 7 8 8 8 10 12 12 9 10 12 13 12 12 11 15 10 11 11 14 12 12 14 10 7 7 7 8
6 8 8 8 7 9 6 5 8 8 6 9 7 6 6 3 1 2 6 5 4 3 2 2 3 2 2 2 3 5 5 4 3 2 3 4 3 2 3 3 4 4 3 3 2 3 5 5 6 5 6 5 6 6 6 6 5 4 5 5 5 5 6 6 6 6 7 8 8 8 8 8 8 8 8 9 9 9 9 9 9 9 9 9 12 9 8 9 9 9 8 9 8 8 8 8 8
9 11 12 10 8 11 4 6 6 6 3 9 7 6 5 2 2 1 2 4 3 3 3 1 2 2 3 5 5 5 4 4 4 3 3 3 3 3 2 2 1 1 2 2 4 5 5 5 5 4 4 5 5 6 5 4 4 5 5 6 6 5 6 6 6 6 7 7 8 8 8 8 8 8 8 9 9 9 9 8 9 8 9 9 9 8 8 8 8 8 8 8 8 8 8 8 7
11 8 9 9 7 11 4 5 2 2 7 7 4 3 3 2 4 1 1 1 4 2 1 3 3 4 4 5 5 5 4 4 2 2 2 2 2 2 3 3 4 4 4 4 4 4 4 4 4 3 4 5 6 6 5 4 4 5 5 5 6 6 6 6 6 6 6 6 8 8 8 8 8 8 8 8 9 8 8 8 8 8 8 8 8 8 9 9 8 8 8 8 8 8 8 8 7
15 10 9 10 8 9 4 7 1 3 5 4 4 3 2 2 4 1 2 2 2 0 2 4 5 4 3 4 3 3 3 3 2 1 1 2 2 3 3 3 3 3 3 4 4 4 4 4 3 3 4 5 5 6 5 4 4 5 5 5 5 6 6 6 6 6 6 6 8 8 8 7 7 8 8 8 8 7 8 8 7 7 7 7 8 8 8 8 8 8 9 9 9 8 8 8 7
14 14 9 7 9 6 6 7 7 7 7 3 2 3 3 3 2 1 3 4 2 1 2 3 3 3 4 5 4 4 3 3 3 2 2 3 3 4 4 3 3 3 4 5 4 5 4 3 3 4 5 6 5 5 5 4 4 5 5 5 5 5 5 5 6 5 6 6 7 8 8 8 7 7 8 8 7 7 7 7 7 7 7 7 8 7 8 8 8 8 9 9 9 9 8 8 8
7 13 9 9 8 7 6 8 6 5 3 0 3 4 2 2 1 3 5 4 1 3 3 3 3 5 5 5 4 4 4 3 3 4 2 2 3 5 2 1 2 3 5 4 4 4 3 3 3 5 5 5 5 5 4 4 4 5 5 5 5 5 5 5 6 5 6 6 7 8 8 7 7 7 7 7 7 7 7 7 7 7 7 7 7 7 8 8 8 8 8 9 9 9 8 8 8
9 14 13 12 8 8 4 6 4 3 4 2 2 3 3 2 3 3 6 3 2 3 4 2 4 5 4 4 3 4 5 5 4 1 3 4 4 4 2 2 2 4 4 5 4 3 2 1 3 4 5 5 4 5 4 4 4 4 5 5 5 5 6 5 5 5 6 6 7 8 7 7 7 7 7 7 7 7 7 7 7 7 7 7 7 7 8 8 7 7 8 8 8 8 8 8 8
13 15 15 12 11 9 3 6 4 2 3 5 2 3 1 2 2 2 6 4 1 3 4 3 3 4 4 3 4 3 4 5 3 3 5 4 2 2 3 3 4 5 4 5 3 2 1 2 3 5 5 5 5 5 4 4 4 4 4 5 5 5 5 5 5 5 6 6 7 8 7 7 7 7 7 7 7 7 7 7 7 7 7 7 7 7 8 7 7 7 8 8 8 8 8 7 7
13 6 11 9 8 8 8 4 4 4 2 1 2 4 5 6 4 2 4 0 2 5 5 4 4 3 3 4 4 4 4 3 4 4 5 4 3 3 5 4 4 4 3 3 2 1 2 3 4 5 5 5 5 5 4 4 4 4 4 5 5 5 5 5 5 5 6 6 6 8 7 8 8 7 7 8 7 6 7 7 7 7 7 7 7 7 8 6 5 6 7 7 6 7 7 7 7
5 4 9 7 5 7 7 0 3 3 2 2 2 2 2 4 5 4 3 1 3 6 7 5 4 3 3 3 4 5 4 4 6 6 4 4 4 4 5 5 2 3 3 1 0 2 2 1 2 3 4 5 5 5 5 4 5 4 5 5 5 5 5 5 5 5 6 6 6 7 8 7 8 7 7 7 6 6 6 6 6 6 7 7 6 6 6 6 6 7 7 7 7 7 7 7 7
4 1 3 2 2 4 3 3 5 3 2 0 3 3 1 2 3 5 4 1 4 7 6 5 4 4 4 3 4 5 5 5 6 5 5 6 5 3 5 5 2 2 2 0 1 3 2 3 2 2 3 4 4 5 5 5 4 5 5 5 5 6 5 5 5 5 5 5 6 6 8 7 7 7 7 7 6 6 6 6 6 7 7 7 6 6 6 6 6 7 7 8 8 7 7 7 7
2 2 3 1 1 3 1 2 6 2 2 0 3 4 1 0 1 5 4 2 3 7 6 6 5 4 4 4 5 5 6 4 6 8 8 7 4 4 3 3 1 1 1 1 3 3 3 3 3 3 3 4 4 5 5 5 5 5 5 5 5 5 4 4 5 5 5 5 5 6 8 7 7 8 8 8 6 6 6 6 7 7 8 7 6 6 7 7 7 7 7 8 9 9 8 8 7
2 2 3 2 1 2 3 3 2 3 4 3 3 4 4 1 3 4 3 4 5 7 8 7 7 6 5 4 4 4 6 7 6 7 8 5 3 2 2 2 1 0 0 1 3 3 3 3 2 3 5 4 5 5 5 5 5 5 5 5 5 4 4 5 4 5 5 5 6 6 7 7 7 8 8 8 7 6 6 6 6 8 8 7 6 7 7 7 8 8 8 7 8 9 9 10 9
3 3 3 1 0 1 1 3 1 5 3 3 2 4 5 1 4 5 4 4 5 7 9 8 7 6 5 4 5 5 6 7 8 7 4 3 1 1 1 2 1 0 1 2 2 2 3 2 2 3 3 4 4 4 5 5 5 4 4 4 5 4 4 5 5 5 5 5 6 6 7 7 7 7 8 7 7 6 6 6 7 8 7 7 6 7 7 7 8 8 8 8 8 8 8 9 11
3 3 4 3 1 3 3 2 4 8 3 5 3 7 11 8 4 5 5 5 6 9 8 7 6 6 6 5 5 6 6 7 9 6 2 1 2 1 0 1 1 2 2 3 3 3 3 3 3 3 3 3 3 4 4 4 5 5 4 4 4 4 5 5 5 5 5 5 6 6 7 6 7 7 8 7 7 6 6 6 7 8 7 7 6 7 8 8 8 9 9 9 8 8 7 8 10
2 0 3 3 2 2 1 3 3 7 7 6 5 7 6 7 6 4 3 4 6 8 6 6 7 7 7 6 6 6 6 8 6 4 4 3 2 2 1 1 2 2 3 3 4 3 3 3 2 3 4 4 4 4 4 5 5 5 6 5 4 4 4 4 4 5 4 5 6 6 6 6 7 7 8 7 7 7 7 6 7 7 8 7 6 8 9 9 10 11 10 10 9 9 6 8 9
2 4 4 3 2 3 1 1 4 3 5 3 4 6 9 11 10 9 4 3 5 7 8 7 6 6 6 6 6 6 7 7 4 5 5 4 3 1 1 2 3 3 3 4 4 3 2 2 3 4 3 3 4 5 5 6 6 6 5 5 5 4 4 4 4 4 4 5 6 6 6 6 7 7 8 7 7 7 6 7 7 7 7 7 6 7 8 9 9 9 9 8 9 9 7 8 10
3 3 2 3 4 3 2 2 3 3 5 2 2 8 13 13 12 9 4 3 9 9 8 7 7 5 5 5 6 6 6 5 5 4 1 1 1 1 1 3 5 5 4 4 4 3 3 3 4 3 2 4 5 5 5 5 5 5 6 5 5 4 5 5 4 4 4 4 6 6 6 6 7 7 8 8 7 7 7 7 7 7 8 7 6 7 8 8 9 9 8 8 7 8 7 9 10
4 2 1 1 3 4 1 1 1 2 3 4 5 11 15 12 8 4 4 6 4 1 3 4 3 4 4 3 4 5 6 7 5 3 2 2 2 1 2 3 4 3 3 4 3 4 4 3 3 3 3 3 4 5 5 5 4 4 4 4 5 3 3 3 3 4 4 4 5 6 6 6 7 6 7 8 6 6 7 7 7 7 7 7 6 7 7 8 8 9 10 8 9 7 6 7 10
4 2 1 3 3 4 1 3 1 2 2 5 10 12 11 6 2 3 2 2 3 4 4 6 4 6 6 5 4 5 7 6 5 5 4 4 3 2 2 3 4 2 3 3 4 4 3 3 3 3 3 4 4 5 4 3 3 3 3 2 2 3 3 2 2 2 4 5 5 6 6 6 7 6 7 7 6 6 6 7 6 6 7 6 6 7 7 8 8 8 9 9 8 8 8 7 8
4 4 3 1 2 3 2 4 6 1 2 3 11 9 2 4 4 3 4 1 3 3 4 5 5 5 5 5 5 5 6 5 4 3 2 3 3 2 1 3 2 3 4 3 3 3 2 4 3 3 4 4 4 4 4 4 4 3 2 2 2 1 1 2 3 4 5 5 5 6 6 6 6 6 6 6 7 6 6 6 7 6 6 6 6 7 6 7 8 8 9 8 9 8 9 8 7
2 3 2 2 2 2 2 5 7 3 3 4 7 7 3 2 3 3 4 3 3 1 3 6 2 1 1 3 3 2 4 4 4 4 4 4 3 3 3 4 4 3 3 2 2 3 4 4 4 4 3 3 4 4 4 4 4 5 6 5 5 5 4 5 5 6 6 5 5 4 4 5 6 6 6 6 7 7 6 7 7 7 6 6 6 6 6 7 7 8 8 7 8 8 8 7 8
2 3 0 0 0 1 1 5 5 3 6 6 5 4 4 1 3 5 5 6 6 3 4 6 3 2 2 2 2 3 3 1 2 3 3 4 2 3 3 4 4 3 2 3 3 4 5 5 4 3 3 3 3 4 5 4 4 5 6 5 4 5 5 5 4 4 4 4 4 5 4 4 5 5 6 6 7 7 6 6 7 6 6 6 6 6 6 7 7 6 7 7 7 7 8 7 9
1 2 2 1 1 1 1 2 1 1 1 1 4 5 4 5 4 2 4 5 6 5 4 4 3 2 2 2 3 4 3 1 1 2 3 3 3 4 3 1 2 1 3 3 4 4 5 4 4 3 3 3 3 3 5 5 4 4 4 4 4 4 5 5 5 4 4 4 4 5 5 4 4 5 5 6 6 7 6 6 6 6 6 6 5 5 6 6 6 6 6 7 7 7 8 7 7
2 2 1 1 1 1 1 2 1 1 3 1 3 5 3 2 2 3 3 4 3 5 5 4 1 1 0 1 3 4 4 1 1 3 4 3 3 3 2 1 2 2 3 4 4 4 4 4 4 4 4 3 4 5 4 5 5 4 4 4 4 4 4 4 4 4 4 4 4 5 4 4 4 4 5 6 6 7 6 6 6 6 6 6 5 5 5 6 6 6 7 7 8 8 7 7 7
2 2 2 1 1 1 2 2 2 1 2 2 4 7 3 4 3 2 1 1 5 5 5 4 2 1 1 1 2 3 2 0 1 3 4 4 3 3 1 1 2 2 2 3 4 4 4 4 4 4 4 3 3 4 4 5 5 4 4 4 4 4 4 4 4 5 5 5 5 6 5 4 4 4 5 5 6 7 6 7 6 7 6 6 5 6 6 6 6 6 6 7 7 8 6 7 7
1 2 3 3 2 0 0 1 1 2 0 3 3 4 4 3 3 2 5 4 4 5 2 2 1 1 0 1 2 4 3 3 2 3 4 4 3 2 1 2 2 3 3 4 4 4 4 4 4 4 3 3 3 4 4 4 4 4 3 4 4 4 5 4 5 5 5 5 6 5 5 4 4 4 5 4 5 7 6 6 6 6 5 5 6 6 6 6 6 6 5 7 7 8 7 8 7
3 2 3 2 2 1 1 1 1 1 2 3 1 3 4 2 3 3 1 2 4 4 4 2 1 0 2 2 3 3 3 3 4 4 4 3 3 2 2 3 4 4 5 5 4 4 4 4 4 4 3 3 3 3 4 4 3 3 3 3 3 4 5 4 5 6 6 6 6 6 5 4 5 4 5 4 5 7 6 5 6 6 5 5 5 5 5 5 5 5 5 7 7 8 8 8 7
4 4 4 3 1 0 0 1 2 2 3 2 1 3 2 5 4 5 2 5 3 3 4 3 3 3 3 3 4 4 4 4 5 5 4 3 2 2 2 3 3 5 5 6 6 5 4 4 4 3 3 3 4 3 3 3 2 3 3 3 3 3 3 4 5 5 6 5 6 6 6 5 5 5 5 5 6 7 6 6 6 6 5 5 6 6 5 6 5 5 5 7 7 8 7 8 7
3 2 3 3 3 3 1 1 2 2 3 2 2 2 3 4 2 0 3 1 2 3 3 5 6 6 6 6 6 6 5 4 4 4 4 3 3 2 2 3 4 4 5 5 6 5 4 4 4 3 4 3 3 3 2 2 3 2 2 3 3 3 3 4 4 4 4 5 4 5 5 5 5 6 6 6 6 7 6 6 6 6 6 6 6 6 6 6 5 5 6 7 7 6 8 9 8
2 2 3 2 1 1 2 1 3 4 5 2 2 2 1 8 3 1 3 5 6 4 4 5 5 6 6 7 7 7 6 3 2 3 3 3 3 3 2 3 3 3 4 5 5 5 5 4 4 4 4 3 3 2 2 2 2 2 2 2 3 3 3 3 3 3 3 4 4 4 4 5 5 5 5 5 6 6 6 6 6 6 6 6 6 6 6 5 5 6 5 7 6 7 8 9 8
1 1 3 1 2 1 2 2 1 2 3 3 2 2 2 3 2 3 2 5 7 4 3 3 5 4 3 5 5 3 2 2 1 3 3 2 2 2 3 3 3 2 5 5 6 5 5 5 4 3 4 3 2 2 2 1 1 2 2 2 3 3 3 3 2 3 3 3 4 4 4 4 4 5 5 5 6 6 6 6 6 6 6 6 6 6 6 5 6 6 5 7 7 6 9 10 8
1 2 1 2 2 2 5 2 3 1 2 2 1 5 3 5 1 2 1 3 3 1 3 3 4 3 2 5 5 4 1 2 2 3 3 3 2 2 3 2 1 2 4 6 6 6 6 6 5 5 4 3 2 2 2 1 1 1 2 2 3 3 3 3 3 3 3 3 3 3 4 4 4 4 4 4 5 6 5 6 6 6 6 6 6 6 6 6 7 6 7 8 8 8 9 9 8
2 0 3 5 2 1 1 2 1 0 1 1 1 3 7 6 1 1 1 2 2 2 1 2 4 3 4 5 4 4 2 2 3 3 3 4 3 3 3 1 1 2 4 5 6 5 5 5 5 5 4 3 2 2 1 1 1 1 2 2 2 2 2 2 3 3 3 3 3 3 3 3 4 4 4 4 5 6 5 6 6 6 6 6 6 6 6 6 6 6 8 8 8 9 9 8 8
3 3 4 2 1 1 2 1 1 2 1 4 4 4 6 4 3 2 4 5 4 2 1 1 1 1 3 3 4 3 2 2 3 3 2 2 3 3 2 1 1 1 3 4 5 6 5 5 4 4 4 3 3 2 2 1 1 1 1 2 2 2 2 2 2 3 3 3 3 3 4 4 4 4 4 5 5 5 5 5 5 6 6 6 6 6 6 6 7 7 8 8 8 9 9 9 9
1 2 1 1 2 1 0 1 0 0 2 2 1 1 1 5 2 3 4 5 5 4 3 3 2 2 2 3 3 4 4 4 4 3 3 3 4 3 2 1 0 3 4 4 6 5 6 6 5 5 4 4 3 3 2 1 1 1 1 1 2 2 2 2 2 3 3 3 3 3 4 4 4 4 4 5 5 5 5 6 5 6 6 6 6 6 6 6 7 7 8 8 9 10 9 10 10
3 1 0 1 2 1 1 1 0 1 0 0 2 4 1 3 4 5 6 5 5 5 5 3 4 2 3 4 4 5 5 4 4 4 4 4 4 3 1 0 1 2 3 4 5 7 6 5 5 5 5 4 3 3 2 1 1 1 1 2 2 2 2 2 3 2 3 3 3 3 3 3 4 4 4 5 5 5 5 6 6 6 6 6 6 7 6 6 7 8 8 9 10 10 10 10 10
2 2 2 1 3 2 1 1 2 1 1 2 2 5 5 3 3 5 7 3 3 3 4 5 6 5 4 5 5 4 5 5 4 4 4 5 5 2 1 2 2 3 4 6 5 5 6 6 5 5 4 3 3 3 2 2 2 1 1 1 1 1 1 2 2 2 3 3 3 3 3 3 4 3 4 5 5 5 5 6 6 6 6 6 6 7 7 6 7 9 9 8 10 11 11 10 10
Wind_Direction
52 68 110 120 224 257 307 345 13 41 73 67 76 49 67 53 61 73 63 174 85 68 44 57 25 14 55 83 105 97 0 26 31 331 80 85 234 266 271 288 306 311 312 319 326 325 332 333 351 6 9 11 12 14 15 15 16 15 18 20 22 21 22 24 23 25 27 28 28 27 27 25 23 25 25 24 22 21 22 21 22 21 19 19 19 15 15 13 15 14 15 16 15 18 18 15 11
58 68 101 140 6 261 59 318 96 97 89 89 64 68 58 61 73 59 65 52 41 68 44 60 60 82 80 101 114 143 68 47 356 23 320 351 303 282 311 321 324 319 314 317 322 328 328 338 356 3 6 9 11 13 13 14 15 16 16 20 18 22 20 21 22 23 26 26 27 27 25 26 22 24 25 23 23 21 22 22 21 20 19 17 17 17 14 9 13 11 10 13 11 16 12 13 12
63 305 194 192 57 52 102 335 94 90 93 80 73 64 78 66 64 67 62 70 78 90 67 27 118 49 121 179 92 353 88 77 32 25 3 356 306 58 332 323 315 307 303 309 319 327 335 351 358 1 5 7 10 11 13 14 14 15 16 20 19 20 20 20 21 22 23 26 24 24 26 25 23 20 25 23 21 22 21 21 21 17 16 17 15 14 14 14 6 8 9 5 6 9 8 10 13
70 27 310 248 86 5 49 51 54 69 83 98 98 67 62 61 72 80 62 69 69 256 334 40 32 24 334 67 58 121 78 87 37 350 56 27 10 325 336 326 316 305 318 329 334 342 350 357 358 360 3 6 8 9 10 13 14 14 16 20 20 19 21 22 22 22 20 22 24 22 22 23 23 21 19 24 21 21 18 20 22 17 13 13 12 9 10 12 8 6 8 7 4 3 9 10 8
75 49 4 39 55 39 58 50 48 69 81 93 113 100 81 74 84 83 68 65 47 7 328 38 127 57 38 46 351 1 53 82 71 21 4 39 2 341 325 329 316 325 344 346 348 353 6 355 353 357 2 5 8 8 8 12 13 14 17 20 19 20 20 21 22 20 20 19 21 23 20 22 22 20 19 17 20 19 17 16 22 19 17 14 12 11 6 5 6 5 4 5 3 358 4 2 357
83 67 37 58 64 240 102 90 70 71 73 98 113 97 104 101 96 89 92 74 67 58 48 51 25 134 103 44 360 40 350 321 23 51 329 48 345 334 327 316 319 323 354 354 356 354 356 348 350 358 1 6 7 7 7 9 12 14 18 21 20 20 22 21 21 20 20 18 16 19 19 19 20 19 18 17 15 18 15 13 15 17 15 13 10 12 9 4 1 358 6 4 0 2 359 4 3
114 102 44 92 93 25 75 86 81 86 45 45 89 116 120 110 104 116 119 112 78 81 44 49 7 200 143 126 137 69 26 16 288 22 318 328 315 322 325 310 316 335 350 349 345 344 349 351 354 0 3 7 8 6 5 9 12 15 19 21 21 23 22 22 21 21 20 18 16 17 17 16 17 18 18 16 14 13 13 11 7 12 10 9 10 8 10 6 2 1 1 358 357 355 357 1 2
33 269 19 81 73 62 74 78 76 65 75 53 60 87 94 117 129 67 77 310 51 18 35 50 307 35 72 250 80 90 119 174 342 326 311 298 314 319 317 317 323 336 340 337 340 341 335 6 355 3 7 9 7 6 5 9 14 16 18 20 21 22 21 21 21 20 18 17 15 16 16 15 15 17 16 14 13 12 11 8 7 7 6 8 8 6 7 6 4 1 0 359 355 353 355 356 356
37 70 213 74 79 80 83 74 85 72 89 75 76 60 46 71 74 55 71 78 118 49 35 7 12 266 78 94 66 81 99 26 334 320 324 326 325 323 308 326 328 325 326 331 336 338 346 7 354 4 12 12 8 6 6 12 16 16 18 18 18 18 17 17 17 16 15 14 13 12 12 13 14 16 16 15 12 11 9 8 7 5 4 4 6 4 4 3 2 1 360 356 355 354 354 353 352
60 4 66 88 111 90 97 93 88 65 78 58 60 51 52 71 90 93 110 93 72 78 49 20 37 79 116 77 118 122 45 357 330 312 13 347 330 324 321 329 323 318 319 327 330 335 352 353 356 8 14 14 10 10 10 14 18 18 18 19 17 17 17 16 15 14 13 11 9 9 10 11 12 15 14 14 11 9 8 6 5 4 5 3 3 3 2 1 1 360 358 357 355 355 354 353 350
68 44 352 88 79 95 89 103 101 110 91 94 67 56 55 84 95 92 79 93 58 84 89 344 92 64 77 75 53 72 360 353 344 9 353 345 327 336 331 325 321 314 314 319 325 331 355 7 344 13 9 12 13 14 14 14 19 19 19 19 18 18 18 17 15 13 11 10 7 7 10 11 12 14 14 12 9 7 6 6 4 2 2 2 1 2 360 359 357 357 356 354 354 354 353 353 351
89 33 102 82 63 96 103 107 110 102 99 96 77 54 31 71 128 105 120 123 84 84 50 340 72 299 87 100 88 79 15 39 15 356 341 332 327 333 322 323 332 334 326 323 332 6 3 20 23 13 4 5 11 9 10 13 15 16 16 17 18 18 19 17 16 14 11 9 9 12 15 15 14 15 12 11 9 6 4 4 2 359 359 359 359 359 358 357 355 355 353 353 351 351 353 350 349
93 87 81 78 84 94 111 111 115 118 113 63 73 57 341 63 70 72 84 94 90 109 65 29 334 271 98 68 66 102 121 47 5 349 329 323 326 326 325 341 356 16 17 348 6 29 31 29 36 26 11 349 8 353 6 7 8 12 12 14 15 18 20 20 19 17 15 15 15 18 19 18 15 14 12 10 9 6 4 3 1 357 356 357 356 357 355 354 353 353 353 350 348 348 348 348 346
79 53 93 102 104 105 109 113 131 125 106 102 77 80 49 74 46 357 306 91 51 62 47 354 280 301 102 200 126 124 75 48 352 337 318 318 318 318 336 348 22 40 39 29 33 31 47 37 39 25 12 12 3 349 13 12 5 9 12 17 19 22 23 23 21 21 21 20 19 19 21 20 16 13 12 12 10 8 5 3 1 357 355 355 354 354 353 352 350 351 350 348 345 345 345 343 342
97 148 89 100 108 105 117 129 133 123 115 123 102 87 106 57 71 52 13 70 70 2 20 314 342 272 84 263 104 57 40 4 336 328 316 314 315 325 347 348 41 51 50 31 45 34 32 35 30 26 20 6 360 2 1 10 11 7 10 21 25 26 26 24 23 23 24 22 19 18 16 17 15 15 13 12 10 8 7 1 1 357 354 354 352 353 351 350 348 349 348 346 344 344 342 339 338
89 106 100 105 110 114 102 117 136 117 119 136 113 126 96 82 34 347 39 345 85 83 279 89 61 355 64 44 68 35 356 336 329 313 303 307 332 348 15 12 6 60 38 35 35 45 20 16 15 19 14 6 2 357 356 355 12 2 10 23 30 31 28 24 22 22 21 23 14 11 8 5 8 10 13 7 7 6 7 3 359 356 354 352 351 350 349 349 347 347 347 344 344 344 340 336 336
263 134 93 100 106 111 143 122 188 110 126 135 148 199 143 95 58 73 296 266 117 68 69 34 36 306 49 42 19 346 340 323 304 311 315 339 342 339 341 2 348 9 28 38 29 24 17 9 15 358 4 2 359 352 350 352 10 351 20 30 32 38 29 25 23 20 12 18 6 2 353 6 359 1 6 5 355 1 2 2 358 355 352 352 349 348 346 348 347 347 345 345 344 345 341 333 333
298 62 95 81 94 99 82 72 80 112 134 143 155 129 135 122 142 110 214 88 91 102 83 86 155 85 348 23 319 317 308 312 335 339 350 346 346 345 343 354 350 359 0 10 41 20 2 13 356 347 353 357 345 339 341 346 351 2 23 23 32 30 38 20 28 18 18 6 1 354 358 2 354 353 3 2 350 354 354 356 355 351 351 351 350 345 345 347 348 347 347 347 346 346 340 336 338
50 81 78 99 48 78 5 79 111 127 123 125 116 81 95 96 194 128 182 110 121 106 81 105 102 100 132 177 353 347 335 344 351 358 352 1 4 3 360 358 2 1 6 0 12 4 358 342 355 356 352 347 336 345 344 350 1 4 8 17 24 35 32 29 21 21 16 9 359 354 357 360 354 348 5 357 345 345 348 348 350 350 349 348 350 343 345 348 347 348 348 348 347 346 344 340 340
16 78 86 70 84 97 64 71 90 88 125 128 129 100 92 102 297 295 168 125 150 108 123 128 99 95 81 48 16 351 349 358 21 0 14 24 22 17 17 9 9 15 5 353 343 347 345 347 350 352 351 345 341 353 352 0 3 358 6 9 11 13 15 12 19 16 15 7 1 353 357 359 351 349 355 352 345 347 346 345 347 346 349 347 350 343 345 350 344 348 349 348 347 350 345 341 340
2 57 81 122 128 114 49 67 101 105 128 123 118 141 115 78 59 256 138 147 101 108 64 55 102 73 7 5 359 352 346 351 8 31 28 36 46 37 25 12 8 4 352 310 305 356 359 353 345 348 351 353 354 356 358 9 357 1 8 6 11 12 9 8 8 9 12 6 0 356 355 355 351 351 353 349 348 345 344 345 345 347 350 346 350 346 350 348 347 349 348 348 348 346 342 339 337
91 60 79 105 108 94 88 80 78 105 96 118 138 143 103 143 149 70 260 284 118 118 118 277 296 316 323 325 340 326 330 349 15 26 43 35 20 28 22 24 26 279 305 319 8 351 3 356 354 348 351 7 6 360 2 8 3 8 8 9 0 11 7 5 7 5 5 7 1 358 350 353 352 350 351 348 347 345 345 347 345 346 347 346 350 348 351 348 347 347 347 345 343 340 337 334 331
94 67 67 74 85 110 103 107 61 165 131 126 128 91 121 166 108 67 294 42 90 60 337 298 282 291 304 301 291 300 330 355 11 31 23 31 17 4 12 3 10 14 1 0 349 355 356 2 15 359 9 4 12 6 1 12 14 11 11 12 1 9 358 3 8 3 5 9 5 1 353 351 351 348 348 347 345 347 346 346 345 347 346 349 350 347 349 346 345 345 343 342 338 333 331 330 327
98 105 98 68 84 90 102 99 142 112 122 92 76 143 134 183 149 23 159 113 102 310 294 279 277 276 263 260 244 279 311 312 315 266 276 292 297 301 324 324 351 329 308 352 1 349 5 13 21 9 24 12 11 7 11 12 18 14 9 3 9 9 357 6 4 4 1 7 15 5 357 350 350 347 349 347 344 348 347 346 345 348 350 349 349 347 347 345 343 342 340 337 335 334 329 327 329
92 99 101 104 81 88 106 101 92 91 75 102 162 135 67 352 39 237 174 158 172 278 277 249 256 238 218 237 256 254 259 228 234 218 234 249 256 278 270 263 284 289 334 3 354 352 13 17 6 24 19 22 16 10 19 20 10 14 9 5 7 1 6 3 1 1 6 6 14 5 1 352 352 350 349 346 341 349 347 352 348 352 349 350 348 346 348 342 341 341 341 337 335 331 329 328 329
56 108 115 110 102 107 100 99 83 83 107 128 144 83 90 54 241 229 163 185 197 296 243 225 229 226 226 240 249 255 255 235 218 225 233 237 250 262 250 280 308 318 4 341 345 3 10 11 26 29 22 21 15 15 21 17 10 8 9 7 4 359 7 1 359 8 9 12 7 5 358 358 354 350 350 346 345 350 351 353 351 352 350 350 347 345 345 340 338 338 340 335 332 330 327 329 326
131 114 105 104 110 105 39 94 74 58 71 317 200 148 142 142 256 191 189 173 315 268 229 192 243 241 241 250 249 240 242 237 223 248 248 230 237 244 302 297 316 357 340 347 350 5 24 1 37 31 36 23 17 23 22 19 16 12 8 0 8 4 359 359 7 9 12 14 10 1 357 4 353 354 353 351 347 352 356 353 352 351 349 350 346 345 343 339 339 339 339 334 331 327 326 327 327
112 113 104 97 96 81 101 98 68 260 101 1 334 178 231 181 218 288 161 155 289 264 234 239 238 248 260 262 263 248 242 242 217 225 256 265 283 317 315 327 331 335 339 349 354 359 21 34 34 38 28 29 12 21 23 17 15 14 6 1 10 4 0 7 12 11 9 11 10 3 1 5 356 356 358 355 350 356 356 353 351 352 350 348 346 346 340 338 337 337 332 330 322 321 322 324 325
129 125 98 112 115 86 29 48 22 327 114 301 356 258 218 188 236 174 135 74 253 251 255 244 248 262 276 285 273 257 252 231 219 237 251 272 286 293 295 316 318 319 349 352 357 354 54 38 25 31 29 27 20 19 17 17 11 7 7 5 9 2 7 14 14 14 7 7 8 10 2 6 3 2 357 356 351 355 353 350 352 352 349 343 338 337 330 330 333 333 329 325 320 317 316 319 319
133 71 111 133 128 77 35 124 344 261 95 293 228 231 97 192 215 175 150 239 257 243 240 235 248 263 278 275 269 270 254 235 235 240 257 269 281 292 292 306 305 297 327 21 358 97 80 56 35 36 23 35 31 26 17 15 11 7 4 6 12 0 16 12 14 10 8 4 6 15 3 9 6 3 356 351 348 351 349 350 350 350 347 335 333 338 334 340 338 336 336 333 329 322 323 321 321
136 216 284 58 186 81 72 21 336 225 56 189 215 299 125 168 210 179 149 165 249 246 240 239 248 262 265 264 268 267 259 249 259 265 266 267 278 278 283 294 288 271 265 86 99 106 104 70 31 39 32 39 37 41 29 22 15 9 6 8 16 5 17 15 11 9 9 8 7 14 7 6 6 2 357 349 347 352 352 351 354 355 344 334 338 344 337 340 346 343 342 340 334 332 328 325 325
61 232 87 75 351 108 129 73 12 336 111 73 254 257 22 266 235 169 153 185 228 252 253 249 248 259 265 264 262 260 266 255 257 262 259 265 264 275 279 300 312 239 260 90 123 130 101 74 50 48 40 40 48 40 26 16 11 14 12 16 13 16 15 16 11 11 11 12 11 10 9 1 5 1 357 353 347 356 355 351 352 350 341 336 341 342 344 347 349 345 346 345 338 335 332 331 332
97 321 110 82 32 106 201 150 69 16 295 239 277 324 322 232 153 153 136 203 220 248 258 255 254 255 261 264 265 268 275 268 253 253 251 244 225 218 280 306 286 295 263 176 137 134 111 91 69 46 42 36 34 33 25 21 13 11 16 18 16 23 22 13 15 12 16 18 13 13 6 359 2 359 357 354 348 353 354 349 347 348 340 338 342 347 350 351 349 345 345 348 340 330 329 331 334
73 354 87 30 92 180 135 121 184 345 281 272 179 264 261 323 173 176 180 209 221 241 254 257 253 257 262 273 272 266 268 276 281 278 265 182 177 221 274 291 279 219 206 184 146 123 105 92 70 56 50 38 28 17 15 8 8 6 15 19 26 28 27 21 13 17 20 21 13 11 3 356 1 356 356 353 351 351 349 347 344 348 341 342 348 352 350 350 350 347 341 346 343 333 331 334 333
120 132 129 136 202 286 338 281 46 332 165 279 268 263 270 271 260 219 198 177 216 241 252 265 270 271 272 274 275 275 273 274 273 283 329 315 274 229 193 206 192 204 187 161 150 149 135 108 92 74 52 33 19 18 13 3 2 10 9 12 26 22 21 25 16 19 20 20 14 3 3 356 0 354 356 353 353 350 347 349 346 351 345 345 352 354 351 351 351 348 343 341 341 336 326 332 331
48 14 66 113 147 133 65 57 41 2 329 300 266 275 302 298 284 250 155 182 218 244 259 264 262 264 270 271 274 272 274 276 286 325 330 306 284 298 251 177 191 193 176 159 153 159 136 116 99 77 43 17 12 15 12 5 5 1 357 4 12 24 21 16 24 19 17 21 10 2 2 360 0 354 357 352 355 352 347 350 349 354 350 350 352 356 354 352 349 346 347 339 340 337 335 339 335
72 83 91 50 39 101 103 70 28 343 289 262 316 299 285 278 274 276 152 160 236 247 250 250 256 262 266 272 276 280 278 283 331 306 287 280 277 289 210 206 190 171 173 175 170 152 125 94 92 67 45 28 21 17 14 10 2 357 355 9 1 20 12 11 23 18 17 19 8 4 3 6 358 357 359 352 359 351 351 349 352 356 353 352 355 356 351 346 347 345 341 336 341 338 341 347 343
6 92 84 83 359 50 64 18 26 21 353 325 57 304 282 269 266 258 143 183 235 234 236 246 259 259 265 271 278 287 300 299 288 296 293 247 107 124 190 197 183 185 179 188 182 131 106 96 86 85 49 43 39 31 18 14 11 6 343 0 348 17 11 13 13 15 13 14 10 7 7 3 359 2 359 354 356 354 353 352 355 354 353 353 353 350 350 346 349 349 346 340 346 337 339 349 350
32 19 60 167 61 293 286 88 57 26 309 303 354 314 292 294 290 272 204 217 237 289 302 300 313 278 270 265 285 300 304 310 319 331 63 58 56 90 199 195 192 215 168 182 135 131 123 114 100 79 56 44 43 31 25 16 8 4 352 3 357 12 52 24 18 13 8 6 16 13 10 5 0 2 2 355 355 354 356 355 353 352 353 351 348 349 351 351 352 351 353 349 342 341 340 353 357
22 357 312 21 2 332 4 112 8 78 333 328 318 291 291 327 75 71 23 276 293 311 290 280 267 273 282 309 329 308 302 309 324 349 23 55 56 68 176 199 187 191 187 172 160 143 134 118 105 84 72 55 43 39 23 16 3 354 4 13 29 17 23 29 11 22 9 12 17 15 14 2 1 0 1 357 355 354 358 356 350 352 351 351 351 347 349 353 353 351 353 350 348 341 352 351 359
49 28 35 74 31 56 285 346 319 206 124 243 292 262 228 42 47 71 78 121 275 268 284 251 226 234 269 293 280 247 277 297 310 335 34 44 40 29 246 201 178 211 200 180 157 158 135 119 103 85 73 61 53 30 18 3 358 350 332 204 210 205 169 24 11 9 7 10 5 9 4 360 359 2 0 0 357 354 360 359 356 351 352 349 353 352 350 352 352 351 352 349 354 349 343 342 353
116 65 10 67 166 337 270 284 310 249 169 44 353 335 88 49 61 40 6 343 285 187 278 262 243 202 236 265 281 284 255 255 275 302 328 333 318 299 246 219 216 213 206 143 135 138 131 119 114 101 88 68 48 36 14 11 15 11 4 9 9 7 14 19 8 359 356 1 6 350 353 1 0 1 2 359 4 354 360 0 358 353 352 348 355 353 350 348 355 353 355 348 348 355 345 337 350
292 73 196 251 202 251 311 338 307 344 338 26 334 352 318 60 25 22 352 321 297 249 236 261 262 254 251 259 275 275 277 243 212 255 274 287 290 277 253 221 205 207 146 116 139 133 124 120 113 101 84 79 55 39 18 10 21 23 18 13 12 8 359 18 4 356 356 358 354 351 348 3 5 360 2 5 3 357 358 0 358 354 350 345 351 352 352 352 352 352 349 355 352 349 354 354 353
47 71 135 175 253 300 21 315 19 359 193 235 18 26 307 311 61 15 332 302 299 300 267 240 230 217 241 238 248 253 254 241 295 306 295 279 272 270 290 58 155 140 120 148 147 143 139 130 121 103 91 73 59 35 36 22 22 23 17 12 10 15 6 354 350 357 358 355 352 349 348 359 1 2 1 5 2 360 359 359 357 352 352 345 351 355 352 351 349 350 352 357 1 357 2 356 349
34 139 236 342 336 39 217 274 340 77 283 125 31 348 251 266 74 147 343 329 348 329 356 10 327 179 193 232 247 252 259 276 290 290 307 306 296 290 282 250 101 129 159 171 160 145 133 126 117 108 91 78 61 47 45 37 32 27 18 11 9 18 1 352 342 350 352 355 354 347 349 355 355 1 5 2 1 1 359 356 354 353 350 347 352 353 350 346 348 348 352 360 7 358 2 357 348
104 137 151 124 133 138 305 278 269 170 256 52 26 343 332 337 67 115 196 222 337 344 356 3 21 53 6 305 271 263 270 202 224 263 281 292 285 282 298 324 208 183 166 153 139 141 139 136 129 117 94 77 63 54 49 49 37 28 30 22 12 12 360 350 341 352 353 352 351 348 351 358 357 357 1 6 2 360 353 354 354 350 349 348 351 345 342 345 348 349 350 356 358 354 357 354 349
68 196 218 191 204 258 194 335 311 246 122 69 47 338 358 320 60 23 8 4 316 324 8 80 117 149 217 235 295 317 323 331 328 294 277 283 290 277 191 223 172 154 146 159 154 157 150 147 138 115 93 84 69 57 51 48 44 32 30 18 16 10 359 349 348 355 357 352 351 348 351 351 355 353 355 356 5 357 347 355 350 348 344 348 344 342 347 345 342 341 341 347 354 352 351 347 345
216 225 260 219 170 184 203 197 252 315 45 101 32 348 315 308 36 129 239 255 247 274 306 331 163 74 328 341 328 323 319 317 310 297 296 308 301 181 156 191 190 166 157 164 163 162 160 151 147 126 111 87 71 60 57 52 48 43 34 16 16 14 1 355 350 352 355 348 349 348 349 346 354 353 355 351 2 355 346 351 347 344 348 344 345 342 338 340 334 331 338 349 347 347 346 346 341
228 248 234 289 6 269 31 43 346 38 348 115 106 344 257 220 267 324 241 262 270 227 262 293 320 295 304 308 311 308 305 301 295 292 291 287 276 281 232 187 181 181 181 173 173 173 161 157 158 146 116 92 73 63 63 66 54 43 23 18 13 12 6 355 345 354 354 347 347 346 348 350 350 352 357 347 358 349 347 346 347 346 344 343 337 335 334 333 333 328 336 342 343 343 346 343 338
329 329 339 354 4 30 1 9 213 271 143 104 213 20 247 300 273 208 258 305 315 311 267 266 266 273 292 298 306 304 301 297 294 294 288 274 272 270 260 246 219 193 176 172 178 176 164 160 161 152 114 91 80 70 67 73 64 42 33 20 13 8 4 353 349 356 355 345 341 343 344 346 341 347 345 346 347 343 344 340 336 337 336 333 333 331 332 330 329 328 331 342 342 348 345 341 333
27 266 314 41 125 15 346 350 350 330 308 344 131 263 31 346 83 221 269 298 296 272 257 256 255 262 269 283 280 275 278 283 268 284 282 284 281 272 261 245 237 203 176 176 183 176 164 162 160 149 126 111 89 75 80 72 65 54 37 30 20 10 1 350 355 1 351 340 339 336 342 340 338 338 339 339 338 337 335 335 336 334 335 334 332 332 331 326 332 326 327 345 339 341 332 333 328
196 289 252 268 73 304 333 37 244 295 330 297 142 297 322 267 60 263 271 280 273 244 236 217 246 215 243 272 267 278 293 314 312 296 296 289 268 266 246 239 225 181 177 184 184 168 170 161 154 134 118 113 99 92 80 75 70 69 45 37 33 19 2 346 355 4 347 337 333 334 336 338 336 329 332 331 332 332 332 331 331 332 333 331 333 330 330 332 334 327 328 342 335 339 333 332 331
73 230 53 48 354 125 117 115 57 219 198 230 342 280 213 236 267 295 320 287 270 224 242 229 241 221 240 266 274 264 263 298 329 327 319 314 291 246 242 246 211 164 180 195 183 172 170 155 154 140 127 118 112 107 94 95 97 78 64 44 32 18 10 1 354 351 336 331 329 332 336 330 325 330 327 326 324 329 327 331 327 331 333 331 329 330 329 331 331 327 342 338 335 338 335 331 329
286 189 105 96 33 329 293 337 166 216 344 300 117 305 308 332 54 153 186 227 188 288 237 266 267 240 256 258 255 265 282 332 312 297 297 291 283 275 267 243 206 186 190 188 168 155 159 155 155 144 143 138 128 129 124 101 100 79 60 47 37 20 5 357 355 346 337 336 339 335 335 333 338 328 322 321 319 325 324 325 328 329 328 330 328 324 329 327 331 336 335 331 333 333 330 327 324
311 36 114 258 185 173 105 209 353 318 284 302 283 302 256 244 291 173 201 199 205 220 258 259 289 224 246 261 267 273 268 284 306 312 305 302 289 290 294 344 98 178 190 171 148 149 149 143 141 138 135 123 125 132 137 129 80 68 45 37 22 15 7 357 355 346 333 334 343 338 333 332 323 327 324 326 322 326 327 327 327 327 327 326 325 323 324 326 331 337 336 333 334 334 329 325 324
205 273 145 49 280 27 254 63 72 165 274 319 290 24 280 187 244 235 212 211 225 233 247 257 242 258 260 272 289 298 305 312 309 305 301 289 289 287 309 323 255 177 173 156 149 151 154 146 146 136 128 133 141 140 149 134 103 79 63 43 46 17 5 1 353 350 340 342 341 332 331 325 329 318 323 319 321 325 326 327 328 326 325 324 323 324 324 328 324 337 334 335 327 322 326 327 326
178 206 169 120 44 351 84 66 221 285 274 238 309 316 229 177 200 207 227 215 205 223 250 265 265 255 259 268 276 288 295 303 298 296 293 288 282 289 291 28 160 160 146 146 157 161 152 150 153 152 151 151 150 141 147 140 139 108 79 42 37 13 4 357 350 348 334 340 335 330 331 324 314 319 320 319 321 322 324 326 323 324 325 325 325 322 325 325 330 334 331 329 326 327 325 327 328
323 310 224 153 151 168 243 213 87 345 248 188 204 278 286 279 138 204 227 195 212 223 233 264 272 270 276 274 271 268 289 290 285 284 282 282 280 269 230 144 150 167 165 166 164 156 156 165 159 154 152 153 154 152 159 154 148 124 87 71 42 25 2 355 336 342 340 334 332 333 329 316 317 315 316 317 317 321 322 322 319 318 321 323 321 321 321 326 331 330 329 327 323 326 326 325 329